Home > Weather > Gorakhpur > Past weeks

Flag for India Weather for the Past 2 Weeks in Gorakhpur, Uttar Pradesh, India

Now
57 °F

Fog.


Feels Like: 57 °F
Forecast: 60 / 84 °F
Wind: 3 mph from South

Location: Patna Airport

Current Time: Feb 13, 2016 at 9:09:31 AM

Latest Report: Feb 13, 2016 at 8:00 AM


Visibility: 1 mi

Pressure: 29.95 "Hg

Humidity: 82%

Dew point: 52 °F

Location of GorakhpurLocation

Historic Weather in Gorakhpur — Graph

°F

Gorakhpur Temperature Yesterday

Maximum temperature yesterday: 82 °F (at 2:30 PM)
Minimum temperature yesterday: 55 °F (at 5:30 AM)
Average temperature yesterday: 73 °F

High & Low Weather Summary for the Past Weeks

 TemperatureHumidityPressure
High86 °F (Feb 2, 1:30 PM)100% (Feb 1, 5:30 AM)30.12 "Hg (Feb 1, 5:30 AM)
Low48 °F (Feb 4, 5:30 AM)31% (Feb 3, 1:00 PM)29.80 "Hg (Feb 11, 2:30 PM)
Average70 °F62%29.93 "Hg
* Reported Jan 29 7:30 AM — Feb 13 8:00 AM, Gorakhpur, Weather by CustomWeather, © 2016

Note: Actual official high and low records may vary slightly from our data, if they occured in-between our weather recording intervals... More about our weather records

Advertising

Gorakhpur Weather History for the Previous 24 Hours

 ConditionsComfort  
Time TempWeatherWind HumidityBarometerVisibility
8:00 AM
Sat, Feb 13
57 °FFog.3 mph82%29.95 "Hg1 mi
7:30 AM57 °FFog.No wind82%29.95 "Hg1 mi
6:30 AM55 °FFog.No wind94%29.92 "Hg1 mi
5:30 AM55 °FFog.No wind94%29.89 "Hg1 mi
9:00 PM
Fri, Feb 12
64 °FHaze.No wind68%29.86 "Hg1 mi
8:30 PM66 °FHaze.No wind64%29.86 "Hg1 mi
8:00 PM68 °FHaze.3 mph60%29.86 "Hg1 mi
7:30 PM75 °FHaze.3 mph50%29.83 "Hg1 mi
7:00 PM75 °FHaze.3 mph47%29.83 "Hg1 mi
6:30 PM77 °FHaze.5 mph42%29.83 "Hg1 mi
6:00 PM79 °FHaze.5 mph39%29.83 "Hg2 mi
5:30 PM81 °FHaze.5 mph37%29.80 "Hg2 mi
5:00 PM82 °FHaze.6 mph32%29.80 "Hg2 mi
4:30 PM82 °FHaze.6 mph32%29.80 "Hg2 mi
4:00 PM82 °FHaze.9 mph35%29.83 "Hg2 mi
3:30 PM82 °FHaze.7 mph32%29.83 "Hg2 mi
3:00 PM82 °FHaze.10 mph32%29.83 "Hg2 mi
2:30 PM82 °FHaze.10 mph35%29.83 "Hg2 mi
2:00 PM81 °FHaze.9 mph42%29.86 "Hg2 mi
1:30 PM81 °FHaze.9 mph42%29.86 "Hg2 mi
1:00 PM81 °FHaze.8 mph42%29.86 "Hg2 mi
12:30 PM81 °FHaze.8 mph42%29.89 "Hg2 mi
12:00 PM79 °FHaze.9 mph45%29.86 "Hg2 mi
11:30 AM75 °FHaze.8 mph54%29.89 "Hg1 mi
11:00 AM70 °FHaze.8 mph64%29.89 "Hg1 mi
10:30 AM68 °FHaze.7 mph69%29.92 "Hg1 mi
10:00 AM66 °FFog.5 mph73%29.92 "Hg1 mi
9:30 AM64 °FFog.2 mph78%29.92 "Hg1 mi
9:00 AM63 °FFog.2 mph83%29.92 "Hg1 mi
Weather by CustomWeather, © 2016

See weather overviewHow to use our weather pages